Regional Weather Roundup
Issued by NWS

Home | Current Version | Previous Version | Graphics & Text | Print | Product List | Glossary On
Versions: 1 2 3 4 5 6 7 8 9 10 11 12 13 14 15 16 17 18 19 20 21 22 23 24 25 26 27 28 29 30 31 32 33 34 35 36 37 38 39 40 41 42 43 44 45 46 47 48 49 50
000
ASUS45 KBOU 251207
RWRCO

WEATHER ROUNDUP FOR COLORADO
NATIONAL WEATHER SERVICE DENVER/BOULDER CO
500 AM MST SUN JAN 25 2015

NOTE: "FAIR" INDICATES FEW OR NO CLOUDS BELOW 12000 FEET WITH NO
SIGNIFICANT WEATHER AND/OR OBSTRUCTIONS TO VISIBILITY.

COZ001>005-013-030-031-251300-
...NORTHWEST COLORADO...

CITY           SKY/WX    TMP DP  RH WIND       PRES   REMARKS
CRAIG          PTCLDY    10   7  87 CALM      30.35S
HAYDEN         CLOUDY    25  18  74 SW3       30.33F
MEEKER         MOCLDY    12   8  84 CALM      30.38R
MOUNT WERNER   NOT AVBL
STEAMBOAT SPGS CLOUDY    28  21  74 SE5       30.33S WCI  23
WALDEN         CLEAR     23  18  80 E7        30.27R WCI  15
$$

COZ006>008-011-251300-
...WEST CENTRAL VALLEYS...

CITY           SKY/WX    TMP DP  RH WIND       PRES   REMARKS
GRAND JUNCTION PTCLDY    23  16  74 SE10      30.37F WCI  12
MONTROSE       PTCLDY    19  13  77 S6        30.40F WCI  11
EAGLE          MOCLDY    18  16  93 CALM      30.40R
RIFLE          PTCLDY    22  15  75 CALM      30.40F
DELTA          PTCLDY    23  16  74 CALM      30.40F
NUCLA          PTCLDY    23  16  74 CALM      30.37S
$$

COZ017>023-064>068-251300-
...SOUTHWEST COLORADO...

CITY           SKY/WX    TMP DP  RH WIND       PRES   REMARKS
DURANGO        CLEAR     17  14  88 NE5       30.27R WCI  10
CORTEZ         CLEAR     18  14  84 VRB3      30.29R
PAGOSA SPRINGS CLEAR     11   8  88 CALM      30.27R
TELLURIDE      CLEAR     28  15  58 SE3       30.37F
WOLF CREEK PAS NOT AVBL
$$

COZ009-010-012-014-032>034-037-058>063-251300-
...CENTRAL COLORADO...

CITY           SKY/WX    TMP DP  RH WIND       PRES   REMARKS
ASPEN          PTCLDY    24  16  71 S6        30.36S WCI  17
BUENA VISTA    PTCLDY    31  19  60 W9        30.26R WCI  23
COPPER MTN     CLOUDY    23  18  80 MISG      30.33R HAZE
BERTHOUD PASS  NOT AVBL
COTTONWOOD PAS PTCLDY    32  18  55 NW15G25   30.26S WCI  22
GUNNISON       PTCLDY    -6 -24  41 CALM      30.42S
KREMMLING      CLOUDY    34  23  64 W10       30.32S WCI  26
LEADVILLE      CLOUDY    25  19  78 NW16G23   30.32R WCI  12
MONARCH PASS   FOG       14  12  92 MISG      30.39S VSB<1/4
SALIDA         PTCLDY    37  19  47 W14G21    30.33R
SUNLIGHT       CLOUDY    27  25  93 W5          N/A  WCI  21
WILKERSON PASS PTCLDY    27  12  54 NW21G40   30.24R WCI  13
$$

COZ069>075-251300-
...SAN LUIS VALLEY/SANGRE DE CRISTO MOUNTAINS...

CITY           SKY/WX    TMP DP  RH WIND       PRES   REMARKS
ALAMOSA        MOCLDY     9   4  80 W7        30.28R WCI  -2
LA VETA PASS   NOT AVBL
SAGUACHE       PTCLDY    32  21  64 N9        30.29S WCI  24
$$

COZ035-036-038>040-251300-
...NORTHERN COLORADO FRONT RANGE...

CITY           SKY/WX    TMP DP  RH WIND       PRES   REMARKS
DENVER INTL AP PTCLDY    28  24  85 S12       30.14R WCI  18
DMNS CITY PARK   N/A     42  22  45 NW3G13    30.13R
AURORA         PTCLDY    36  28  72 S1        30.14R
FRONT RANGE AP NOT AVBL
ERIE MUNI ARPT CLEAR     24  24  97 CALM      30.14S
BOULDER MUN AP CLEAR     30  27  86 W6        30.14R WCI  24
CENTENNIAL     PTCLDY    25  22  88 SE5       30.14R WCI  19
BROOMFIELD     CLEAR     32  27  80 N12       30.13S WCI  23
FORT COLLINS   CLEAR     30  25  80 S6        30.15F WCI  24
LONGMONT       CLEAR     27  24  89 CALM      30.17R
$$

COZ041-046-047-076>085-087-088-251300-
...PIKES PEAK/PALMER DIVIDE AND SOUTHERN FOOTHILLS...

CITY           SKY/WX    TMP DP  RH WIND       PRES   REMARKS
COLO. SPRINGS  CLEAR     29  24  82 S3        30.17R
A. F. ACADEMY  CLEAR     28  19  70 N12       30.14R WCI  18
ELLICOTT       CLEAR    N/A N/A N/A N6        30.14R
FALCON         CLEAR     34  22  60 NW12G17   30.16R WCI  26
FORT CARSON    CLEAR     27  23  85 SW6       30.15R WCI  21
LIMON          CLEAR     30  25  81 NW13      30.13S WCI  20
MONUMENT HILL  CLEAR     25  21  86 W8        30.15R WCI  16
TRINIDAD       PTCLDY    31  25  78 S5        30.20R WCI  26
$$

COZ042>045-048>051-090-091-251300-
...NORTHEAST COLORADO...

CITY           SKY/WX    TMP DP  RH WIND       PRES   REMARKS
GREELEY ARPT   CLEAR     27  19  74 NW7       30.12F WCI  19
AKRON          CLEAR     30  25  81 N10       30.09S WCI  21
BURLINGTON     CLEAR     37  24  59 N17       30.08F
WRAY           PTCLDY    38  26  60 NW15G22   30.08R
STERLING       CLEAR     37  30  75 N9        30.09F
HOLYOKE        CLEAR     37  27  65 NW16G23   30.07S
FORT MORGAN    CLEAR     33  27  77 N15       30.12S WCI  23
$$

COZ086-089-092>099-251300-
...SOUTHEAST COLORADO...

CITY           SKY/WX    TMP DP  RH WIND       PRES   REMARKS
PUEBLO         CLEAR     24  22  91 N5        30.16S WCI  18
LA JUNTA       CLEAR     33  26  75 W12       30.16R WCI  24
LAMAR          PTCLDY    37  26  64 W15       30.12R
SPRINGFIELD      N/A     33  27  78 NW18      30.12R WCI  22
$$


USA.gov is the U.S. government's official web portal to all federal, state and local government web resources and services.